TimeFrame on Redefined Productions
Outwar Sigil TimeFrame

Sigil TimeFrame

95 Gods Updated: 2019-05-18 06:53:31
NameTime LeftWindow Opens
Old World Drake3d 20:592019-05-17 12:24:00
Lacuste of the Swarm2d 12:142019-05-18 21:09:00
Animated Captain1d 14:522019-05-19 18:31:00
Jade Dragonite1d 13:362019-05-19 19:47:00
Xynak, the Arcane Master1d 05:262019-05-20 03:57:00
Bolkor, the Holy Master1d 02:242019-05-20 06:59:00
Varsanor, Master of Darkness0d 22:072019-05-20 11:16:00
Howldroid, Tormentor of the Pit0d 21:492019-05-20 11:34:00
Zertan, The Collector0d 21:452019-05-20 11:38:00
Anguish0d 17:022019-05-20 16:21:00
Slashbrood, Devourer of the Blackness0d 16:582019-05-20 16:25:00
Jazzmin, Maiden of Vitality0d 16:062019-05-20 17:17:00
Skarthul the Avenged0d 15:272019-05-20 17:56:00
Mistress of the Sword0d 12:372019-05-20 20:46:00
Pinosis0d 10:132019-05-20 23:10:00
Rancid, Lord of Thugs0d 10:102019-05-20 23:13:00
Q-SEC Commander0d 08:372019-05-21 00:46:00
Crane0d 08:082019-05-21 01:15:00
Ag Nabak the Abomination0d 07:572019-05-21 01:26:00
Straya, the Underworld Ruler0d 06:332019-05-21 02:50:00
Hackerphage, Protector of the Gateway0d 06:182019-05-21 03:05:00
Nayark the Mummified Sorcerer0d 04:582019-05-21 04:25:00
Nessam0d 04:102019-05-21 05:13:00
Gorganus of the Wood0d 00:572019-05-21 08:26:00
Synge, The Red Dragon0d 00:322019-05-21 08:51:00
Sigil, Lich of Woe0d 00:182019-05-21 09:42:00
Ancient Magus Tarkin0d 00:232019-05-21 09:47:00
Samatha Dark-Soul0d 01:542019-05-21 11:18:00
Lord Narada0d 02:042019-05-21 11:28:00
Jorun the Blazing Swordsman0d 02:192019-05-21 11:43:00
Keeper of Nature0d 02:352019-05-21 11:59:00
Threk, King of Lords0d 03:172019-05-21 12:41:00
Garland, The Lord Keeper0d 03:392019-05-21 13:03:00
Baron Mu, Dark Rider of the Undead0d 05:572019-05-21 15:21:00
Traxodon the Plaguebringer0d 06:242019-05-21 15:48:00
Dlanod, the Crazed Chancellor0d 06:352019-05-21 15:59:00
Archdevil Yirkon0d 07:222019-05-21 16:46:00
Rotborn, Eater of the Dead0d 08:472019-05-21 18:11:00
Lord Varan0d 08:582019-05-21 18:22:00
Lord Suka0d 09:202019-05-21 18:44:00
Windstrike The Vile0d 11:252019-05-21 20:49:00
Ebliss, Fallen Angel of Despair0d 11:372019-05-21 21:01:00
Lord Xordam0d 11:402019-05-21 21:04:00
The Emerald Assassin0d 13:162019-05-21 22:40:00
Skybrine The Inescapable0d 13:212019-05-21 22:45:00
Shadow0d 14:192019-05-21 23:43:00
Tsort0d 15:312019-05-22 00:55:00
Hyrak, Bringer of Nightmares0d 15:462019-05-22 01:10:00
Tylos, The Lord Master0d 15:512019-05-22 01:15:00
Vitkros, Hydra of the Deep0d 16:302019-05-22 01:54:00
Anvilfist0d 16:302019-05-22 01:54:00
Melt Bane, The Forbidden Demon Dragon0d 17:102019-05-22 02:34:00
Freezebreed, The Frozen Manipulator0d 17:282019-05-22 02:52:00
Wanhiroeaz the Devourer0d 17:332019-05-22 02:57:00
Felroc, Overseer of Hellfire0d 17:482019-05-22 03:12:00
Murderface1d 00:212019-05-22 09:45:00
Zikkir the Dark Archer1d 02:082019-05-22 11:32:00
Volgan the Living Ironbark1d 02:592019-05-22 12:23:00
King Ashnar, Lord of the Unliving1d 03:042019-05-22 12:28:00
Dreg nor, Keeper of the Infernal Essence1d 03:182019-05-22 12:42:00
Lady Chaos, Queen of the Abyss1d 03:382019-05-22 13:02:00
Gnorb1d 03:492019-05-22 13:13:00
Lord Sibannac1d 04:582019-05-22 14:22:00
Sarcrina the Astral Priestess1d 08:542019-05-22 18:18:00
Brutalitar, Lord of the Underworld1d 09:102019-05-22 18:34:00
Terrance, Rebel of Rallis1d 11:262019-05-22 20:50:00
Detox1d 11:302019-05-22 20:54:00
Lady Ariella1d 12:012019-05-22 21:25:00
Smoot the Yeti1d 12:222019-05-22 21:46:00
Ganja the Stone Golem1d 20:492019-05-23 06:13:00
Bloodchill the Grizzly1d 22:312019-05-23 07:55:00
Numerocure, The Black Messenger of Evil2d 02:482019-05-23 12:12:00
Sylvanna TorLai2d 10:072019-05-23 19:31:00
Amalgamated Apparition2d 10:222019-05-23 19:46:00
Akkel the Enflamed Warrior2d 17:202019-05-24 02:44:00
Great Lord Ganeshan2d 22:102019-05-24 07:34:00
Crolvak, the Fire Master2d 23:402019-05-24 09:04:00
Crantos, Defender of Ultimation3d 00:302019-05-24 09:54:00
Esquin, the Kinetic Master3d 01:062019-05-24 10:30:00
Karvaz, Lord of Alsayic3d 03:432019-05-24 13:07:00
Grivvek, Protector of the Brood3d 06:182019-05-24 15:42:00
Viserion, the Necrodragon3d 06:192019-05-24 15:43:00
Quiver, The Renegade3d 08:572019-05-24 18:21:00
Nar Zhul, Slayer of All3d 12:392019-05-24 22:03:00
Kro Shuk, Doomslayer3d 19:472019-05-25 05:11:00
Ormsul the Putrid3d 20:212019-05-25 05:45:00
Raiyar, the Shadow Master4d 04:382019-05-25 14:02:00
Nafir, God of Desolation4d 06:042019-05-25 15:28:00
Balerion, Dragon of Dread4d 10:092019-05-25 19:33:00
Emperor Neudeus, Controller of the Universe4d 17:072019-05-26 02:31:00
Kretok, Descendant of Nature5d 02:092019-05-26 11:33:00
Noxious Slug109d 09:342019-01-31 23:49:00
Beast of Cards108d 15:292019-02-01 17:54:00
Shaik, Servant of Arkron32d 02:512019-04-19 06:32:00
Rook, Hand of Arkron30d 21:232019-04-20 12:00:00